sat.trackr.live / text

‹ back to catalog

SKYKRAFT-3D

NORAD 57956 · 2023-084BZ

PAYLOAD ACTIVE UNKNOWN

§ Identity

Operator
Country
AUS
Launch date
2023-06-12
Launch site
AFWTR
Launch vehicle
Mass (kg)
RCS (m²)

External: N2YO · Heavens-Above · Gunter

§ Orbital elements

Epoch: 2026-05-25T04:27:27.631872Z

Period
91.34 min
Inclination
97.6068°
Eccentricity
0.0002427
Mean motion
15.76484097 rev/d
Perigee alt
338.8 km
Apogee alt
342.0 km
Semi-major
6,718.5 km
B*
6.5659e-4
RAAN
302.2212°
Arg perigee
293.4079°
Mean anomaly
66.6931°
Rev number
15,154

§ Raw data

SKYKRAFT-3D1 57956U 23084BZ  26145.18573648  .00104768  00000+0  65659-3 0  99982 57956  97.6068 302.2212 0002427 293.4079  66.6931 15.76484097151549

JSON: /api/v1/satellites/57956 · /tle

For live sub-satellite position, see the globe view (requires WebGL).

§ Visibility from observer

Set your observer location to see the next 7 days of passes ≥ 10°. The values pass through the URL so the page stays shareable.

No JS? Fill the form by hand. The geolocation button needs JavaScript.